Weather History for St. Johnsbury, VT

Change the Weather History Date:

Friday, April 5, 2013

  Actual Average Record
Temperature  
Mean Temperature 39 °F 40 °F  
Max Temperature 49 °F 51 °F 83 °F (1910)
Min Temperature 29 °F 29 °F 0 °F (1964)
Degree Days  
Heating Degree Days 26 25  
Month to date heating degree days 153 131  
Since 1 July heating degree days 6685 6931  
Cooling Degree Days 0 0  
Month to date cooling degree days 0 0  
Year to date cooling degree days 0 0  
Moisture  
Dew Point 21 °F    
Average Humidity 53    
Maximum Humidity 75    
Minimum Humidity 31    
Precipitation  
Precipitation 0.00 in 0.09 in 1.01 in (1973)
Month to date precipitation 0.31 0.46  
Year to date precipitation 5.61 7.65  
Sea Level Pressure  
Sea Level Pressure 29.83 in    
Wind  
Wind Speed - (North)    
Max Wind Speed -    
Max Gust Speed -    
T = Trace of Precipitation, MM = Missing Value Source: NWS Daily Summary

Daily Weather History Graph

Daily Weather History Graph

Search for Another Location

Airport:

Trip Planner

Search our weather history database for the weather conditions in past years. The results will help you decide how hot, cold, wet, or windy it might be!

Date:

Astronomy

Apr. 05, 2013 Rise Set
Actual Time 6:21 AM EDT 7:20 PM EDT
Civil Twilight 5:51 AM EDT 7:50 PM EDT
Nautical Twilight 5:16 AM EDT 8:25 PM EDT
Astronomical Twilight 4:39 AM EDT 9:02 PM EDT
Moon 3:37 AM EDT (4/5) 2:31 PM EDT (4/5)
Length of Visible Light 13h 58m
Length of Day
12h 59m
Waning Crescent, 24% of the Moon is Illuminated
Apr 5
Waning Crescent
Apr 10
New
Apr 18
First Quarter
Apr 25
Full
May 2
Last Quarter

Hourly Weather History & Observations

Time (EDT) Temp. Dew Point Humidity Pressure Visibility Wind Dir Wind Speed Gust Speed Precip Events Conditions
12:54 AM 28.9 °F 19.9 °F 69% 29.91 in - North - - N/A   Unknown
1:54 AM 30.0 °F 21.0 °F 69% 29.88 in - North - - N/A   Unknown
2:54 AM 28.9 °F 21.9 °F 75% 29.85 in - North - - N/A   Unknown
3:54 AM 30.0 °F 21.9 °F 72% 29.85 in - North - - N/A   Unknown
4:54 AM 35.1 °F 21.0 °F 57% 29.83 in - North - - N/A   Unknown
5:54 AM 32.0 °F 21.9 °F 66% 29.83 in - North - - N/A   Unknown
6:54 AM 30.9 °F 21.9 °F 69% 29.82 in - North - - N/A   Unknown
7:54 AM 34.0 °F 23.0 °F 64% 29.82 in - North - - N/A   Unknown
8:54 AM 37.9 °F 21.9 °F 53% 29.81 in - North - - N/A   Unknown
9:54 AM 41.0 °F 21.9 °F 47% 29.79 in - North - - N/A   Unknown
10:54 AM 43.0 °F 21.0 °F 42% 29.78 in - North - - N/A   Unknown
11:54 AM 46.9 °F 18.0 °F 32% 29.77 in - North - - N/A   Unknown
12:54 PM 48.0 °F 19.0 °F 32% 29.77 in - North - - N/A   Unknown
1:54 PM 44.1 °F 21.9 °F 42% 29.78 in - North - - N/A   Unknown
2:54 PM 43.0 °F 24.1 °F 47% 29.78 in - North - - N/A   Unknown
3:54 PM 44.1 °F 21.9 °F 42% 29.76 in - North - - N/A   Unknown
4:54 PM 39.9 °F 28.0 °F 63% 29.79 in - North - - N/A   Unknown
5:54 PM 39.0 °F 27.0 °F 62% 29.81 in - North - - N/A   Unknown
6:54 PM 37.0 °F 26.1 °F 65% 29.83 in - North - - N/A   Unknown
7:54 PM 35.1 °F 25.0 °F 67% 29.86 in - North - - N/A   Unknown
8:54 PM 34.0 °F 21.0 °F 59% 29.89 in - North - - N/A   Unknown
9:54 PM 32.0 °F 17.1 °F 54% 29.90 in - North - - N/A   Unknown
10:54 PM 30.9 °F 14.0 °F 50% 29.91 in - North - - N/A   Unknown
11:54 PM 30.0 °F 12.9 °F 49% 29.91 in - North - - N/A   Unknown